THOR ABLESTAR DEB, 122

Orbit data source: Space-Track

THOR ABLESTAR DEB, 122 is space debris in LEO originally from a launch on Thu, 29 Jun 1961 UTC launched from the Air Force Eastern Test Range (AFETR). Debris objects in space refer to the collection of defunct objects orbiting the Earth. Examples of debris include non-operational satellites, rocket bodies, and fragments generated from explosions, collisions, or faulty payload assembly.

Loading next visibility...
Identifier
122, 1961-015G
Orbit
LEO
Country
Flag of USUS
Related business
Manufacturer
Unknown
Mission
Spacecraft
Bus & Motor
Unknown
Mass
Unknown
Launch date (UTC)
1961-06-29 (65 years ago)
Launch vehicle
Unknown
Launch site
Air Force Eastern Test Range (AFETR)
Object type
Payload
Rocket body
Debris
Shape & HBR
Unknown shape, 0.5 m
Radar Cross Section
Medium (>0.1 m² and <1 m²)

Expand to show TLE details & history
Last TLE update: 9 hours ago

TLE from 9 hours ago
0 THOR ABLESTAR DEB
1 00122U 61015G   26071.26031259  .00010999  00000-0  88838-3 0  9998
2 00122  66.7402 106.3059 0045863 280.3672  79.2294 14.99310627379734
Epoch: 2026-03-12T06:14Z
TLE epoch observation values (Epoch: 2026-03-12T06:14:51.007Z)
Latitude
-0°
Longitude
-157.31938°
Altitude
565.389 km
Speed
7.582 km/s
True Right ascension
07h 05m 13s
True Declination
0° 00' 00"
Sunlit
Object was in full shadow at epoch
Visualization orbit readout
Latitude
Unknown
Longitude
Unknown
Altitude
Unknown
Speed
Unknown
Apparent Right ascension
Unknown
Apparent Declination
Unknown
Sunlit
N/A
Visualization observer readout
Local Sidereal Time
19:52:04
Azimuth
Unknown
Elevation
Unknown
Doppler factor
Unknown
Orbital elements
Apogee altitude
599.197 km
Perigee altitude
535.489 km
Semi-major axis
6,945.48 km
Eccentricity
0.00459
Inclination
66.7402°
RAAN
106.3059°
Arg. of periapsis
280.3672°
True anomaly
79.74624°
Mean anomaly
79.2294°
Eccentric anomaly
79.48777°
Mean motion
3.74964 °/min
Orbital period
96.01 mins
BSTAR
0.00088838
Loading maneuver chart data...
Computing Atmospheric mass density...

Documentation

Showing up to 5 results
|